HB9BFD-10 Weather Reports


time (UTC)temp
C
wind
direction
speed
KPH
gust
KPH
rain 1hr
cm
rain 24hr
cm
rain mn
cm
humidity
%
barometer
mb
20260503034441 -17 0.0 0.0 0.00 0.00 0.00 57 1018.6
20260503033941 -17 0.0 0.0 0.00 0.00 0.00 58 1018.7
20260503033441 -17 0.0 0.0 0.00 0.00 0.00 59 1018.7
20260503032941 -17 0.0 0.0 0.00 0.00 0.00 58 1018.8
20260503032441 -17 0.0 0.0 0.00 0.00 0.00 54 1018.8
20260503031941 -17 0.0 0.0 0.00 0.00 0.00 54 1018.8
20260503031441 -17 0.0 0.0 0.00 0.00 0.00 55 1018.8
20260503030941 -17 0.0 0.0 0.00 0.00 0.00 55 1018.7
20260503030441 -17 0.0 0.0 0.00 0.00 0.00 55 1018.6
20260503025941 -17 0.0 0.0 0.00 0.00 0.00 56 1018.5
20260503025441 -17 0.0 0.0 0.00 0.00 0.00 55 1018.5
20260503024941 -17 0.0 0.0 0.00 0.00 0.00 55 1018.5
20260503024441 -17 0.0 0.0 0.00 0.00 0.00 53 1018.7
20260503023941 -17 0.0 0.0 0.00 0.00 0.00 55 1018.7
20260503023441 -17 0.0 0.0 0.00 0.00 0.00 54 1018.8
20260503022941 -17 0.0 0.0 0.00 0.00 0.00 53 1018.9
20260503022441 -17 0.0 0.0 0.00 0.00 0.00 53 1019.0
20260503021941 -17 0.0 0.0 0.00 0.00 0.00 53 1019.1
20260503021441 -17 0.0 0.0 0.00 0.00 0.00 53 1019.0
20260503020941 -17 0.0 0.0 0.00 0.00 0.00 53 1019.1
20260503020441 -17 0.0 0.0 0.00 0.00 0.00 53 1019.0
20260503015941 -17 0.0 0.0 0.00 0.00 0.00 52 1019.2
20260503015441 -17 0.0 0.0 0.00 0.00 0.00 51 1019.2
20260503014941 -17 0.0 0.0 0.00 0.00 0.00 50 1019.2
20260503014441 -17 0.0 0.0 0.00 0.00 0.00 49 1019.2
20260503013941 -17 0.0 0.0 0.00 0.00 0.00 49 1019.3
20260503013441 -17 0.0 0.0 0.00 0.00 0.00 50 1019.3
20260503012941 -17 0.0 0.0 0.00 0.00 0.00 48 1019.2
20260503012441 -17 0.0 0.0 0.00 0.00 0.00 48 1019.2
20260503011941 -17 0.0 0.0 0.00 0.00 0.00 49 1019.3
20260503011441 -17 0.0 0.0 0.00 0.00 0.00 50 1019.3
20260503010941 -17 0.0 0.0 0.00 0.00 0.00 51 1019.3
20260503010441 -17 0.0 0.0 0.00 0.00 0.00 50 1019.3
20260503005941 -17 0.0 0.0 0.00 0.00 0.00 49 1019.3
20260503005441 -17 0.0 0.0 0.00 0.00 0.00 48 1019.4
20260503004941 -17 0.0 0.0 0.00 0.00 0.00 49 1019.4
20260503004441 -17 0.0 0.0 0.00 0.00 0.00 49 1019.4
20260503003941 -17 0.0 0.0 0.00 0.00 0.00 50 1019.4
20260503003441 -17 0.0 0.0 0.00 0.00 0.00 49 1019.5
20260503002941 -17 0.0 0.0 0.00 0.00 0.00 50 1019.6
20260503002441 -17 0.0 0.0 0.00 0.00 0.00 48 1019.6
20260503001941 -17 0.0 0.0 0.00 0.00 0.00 48 1019.6
20260503001441 -17 0.0 0.0 0.00 0.00 0.00 48 1019.6
20260503000941 -17 0.0 0.0 0.00 0.00 0.00 48 1019.6
20260503000441 -17 0.0 0.0 0.00 0.00 0.00 48 1019.6
20260502235941 -17 0.0 0.0 0.00 0.00 0.00 49 1019.7
20260502235441 -17 0.0 0.0 0.00 0.00 0.00 49 1019.6
20260502234941 -17 0.0 0.0 0.00 0.00 0.00 49 1019.7
20260502234441 -17 0.0 0.0 0.00 0.00 0.00 50 1019.6
20260502233941 -17 0.0 0.0 0.00 0.00 0.00 52 1019.7
20260502233441 -17 0.0 0.0 0.00 0.00 0.00 52 1019.6
20260502232941 -17 0.0 0.0 0.00 0.00 0.00 52 1019.8
20260502232441 -17 0.0 0.0 0.00 0.00 0.00 48 1019.7
20260502231941 -17 0.0 0.0 0.00 0.00 0.00 48 1019.8
20260502231441 -17 0.0 0.0 0.00 0.00 0.00 46 1019.8
20260502230941 -17 0.0 0.0 0.00 0.00 0.00 44 1019.7
20260502230441 -17 0.0 0.0 0.00 0.00 0.00 43 1019.6
20260502225941 -17 0.0 0.0 0.00 0.00 0.00 46 1019.7
20260502225441 -17 0.0 0.0 0.00 0.00 0.00 44 1019.7
20260502224941 -17 0.0 0.0 0.00 0.00 0.00 45 1019.7
20260502224441 -17 0.0 0.0 0.00 0.00 0.00 47 1019.8
20260502223941 -17 0.0 0.0 0.00 0.00 0.00 46 1019.7
20260502223441 -17 0.0 0.0 0.00 0.00 0.00 48 1019.7
20260502222941 -17 0.0 0.0 0.00 0.00 0.00 49 1019.6
20260502222441 -17 0.0 0.0 0.00 0.00 0.00 48 1019.7
20260502221941 -17 0.0 0.0 0.00 0.00 0.00 48 1019.6
20260502221441 -17 0.0 0.0 0.00 0.00 0.00 49 1019.7
20260502220941 -17 0.0 0.0 0.00 0.00 0.00 49 1019.6
20260502220441 -17 0.0 0.0 0.00 0.00 0.00 48 1019.7
20260502215941 -17 0.0 0.0 0.00 0.00 0.00 48 1019.7
20260502215441 -17 0.0 0.0 0.00 0.00 0.00 49 1019.6
20260502214941 -17 0.0 0.0 0.00 0.00 0.00 49 1019.5
20260502214441 -17 0.0 0.0 0.00 0.00 0.00 49 1019.6
20260502213941 -17 0.0 0.0 0.00 0.00 0.00 49 1019.5
20260502213441 -17 0.0 0.0 0.00 0.00 0.00 49 1019.5
20260502212941 -17 0.0 0.0 0.00 0.00 0.00 51 1019.5
20260502212441 -17 0.0 0.0 0.00 0.00 0.00 50 1019.5
20260502211941 -17 0.0 0.0 0.00 0.00 0.00 51 1019.4
20260502211441 -17 0.0 0.0 0.00 0.00 0.00 52 1019.5
20260502210941 -17 0.0 0.0 0.00 0.00 0.00 52 1019.4
20260502210441 -17 0.0 0.0 0.00 0.00 0.00 51 1019.4
20260502205941 -17 0.0 0.0 0.00 0.00 0.00 52 1019.5
20260502205441 -17 0.0 0.0 0.00 0.00 0.00 52 1019.5
20260502204941 -17 0.0 0.0 0.00 0.00 0.00 52 1019.5
20260502204441 -17 0.0 0.0 0.00 0.00 0.00 52 1019.5
20260502203942 -17 0.0 0.0 0.00 0.00 0.00 51 1019.6
20260502203441 -17 0.0 0.0 0.00 0.00 0.00 51 1019.5
20260502202941 -17 0.0 0.0 0.00 0.00 0.00 52 1019.6
20260502202441 -17 0.0 0.0 0.00 0.00 0.00 51 1019.6
20260502201941 -17 0.0 0.0 0.00 0.00 0.00 51 1019.6
20260502201441 -17 0.0 0.0 0.00 0.00 0.00 51 1019.6
20260502200941 -17 0.0 0.0 0.00 0.00 0.00 50 1019.6
20260502200441 -17 0.0 0.0 0.00 0.00 0.00 50 1019.7
20260502195941 -17 0.0 0.0 0.00 0.00 0.00 50 1019.5
20260502195441 -17 0.0 0.0 0.00 0.00 0.00 49 1019.6
20260502194941 -17 0.0 0.0 0.00 0.00 0.00 49 1019.6
20260502194441 -17 0.0 0.0 0.00 0.00 0.00 48 1019.5
20260502193941 -17 0.0 0.0 0.00 0.00 0.00 47 1019.4
20260502193441 -17 0.0 0.0 0.00 0.00 0.00 47 1019.4
20260502192941 -17 0.0 0.0 0.00 0.00 0.00 46 1019.3
20260502192441 -17 0.0 0.0 0.00 0.00 0.00 46 1019.2
20260502191941 -17 0.0 0.0 0.00 0.00 0.00 45 1019.2
20260502191441 -17 0.0 0.0 0.00 0.00 0.00 45 1019.1
20260502190941 -17 0.0 0.0 0.00 0.00 0.00 44 1019.2
20260502190441 -17 0.0 0.0 0.00 0.00 0.00 43 1019.2
20260502185941 -17 0.0 0.0 0.00 0.00 0.00 43 1019.2
20260502185441 -17 0.0 0.0 0.00 0.00 0.00 41 1019.1
20260502184941 -17 0.0 0.0 0.00 0.00 0.00 42 1019.0
20260502184441 -17 0.0 0.0 0.00 0.00 0.00 42 1019.0
20260502183941 -17 0.0 0.0 0.00 0.00 0.00 42 1019.0
20260502183441 -17 0.0 0.0 0.00 0.00 0.00 43 1019.0
20260502182941 -17 0.0 0.0 0.00 0.00 0.00 40 1019.0
20260502182441 -17 0.0 0.0 0.00 0.00 0.00 40 1019.0
20260502181941 -17 0.0 0.0 0.00 0.00 0.00 40 1019.0
20260502181441 -17 0.0 0.0 0.00 0.00 0.00 41 1019.0
20260502180941 -17 0.0 0.0 0.00 0.00 0.00 44 1019.0
20260502180441 -17 0.0 0.0 0.00 0.00 0.00 40 1019.0
20260502170441 -17 0.0 0.0 0.00 0.00 0.00 39 1019.1
20260502163941 -17 0.0 0.0 0.00 0.00 0.00 30 1019.1
20260502163441 -17 0.0 0.0 0.00 0.00 0.00 29 1019.1
20260502162941 -17 0.0 0.0 0.00 0.00 0.00 29 1019.2
20260502162441 -17 0.0 0.0 0.00 0.00 0.00 28 1019.3
20260502161941 -17 0.0 0.0 0.00 0.00 0.00 28 1019.3
20260502161441 -17 0.0 0.0 0.00 0.00 0.00 28 1019.4
20260502160941 -17 0.0 0.0 0.00 0.00 0.00 27 1019.5
20260502160441 -17 0.0 0.0 0.00 0.00 0.00 27 1019.6
20260502151941 -17 0.0 0.0 0.00 0.00 0.00 27 1019.9
20260502151441 -17 0.0 0.0 0.00 0.00 0.00 27 1020.0
20260502150941 -17 0.0 0.0 0.00 0.00 0.00 28 1019.9
20260502150441 -17 0.0 0.0 0.00 0.00 0.00 29 1020.0
20260502130441 -17 0.0 0.0 0.00 0.00 0.00 29 1022.0
20260502123441 -17 0.0 0.0 0.00 0.00 0.00 31 1022.3
20260502122941 -17 0.0 0.0 0.00 0.00 0.00 31 1022.5
20260502122441 -17 0.0 0.0 0.00 0.00 0.00 32 1022.6
20260502121941 -17 0.0 0.0 0.00 0.00 0.00 33 1022.6
20260502121441 -17 0.0 0.0 0.00 0.00 0.00 35 1022.6
20260502120941 -17 0.0 0.0 0.00 0.00 0.00 35 1022.7
20260502120441 -17 0.0 0.0 0.00 0.00 0.00 35 1022.8
20260502115441 -17 0.0 0.0 0.00 0.00 0.00 37 1023.0
20260502114941 -17 0.0 0.0 0.00 0.00 0.00 39 1023.1
20260502114441 -17 0.0 0.0 0.00 0.00 0.00 38 1023.1
20260502113941 -17 0.0 0.0 0.00 0.00 0.00 37 1023.2
20260502113441 -17 0.0 0.0 0.00 0.00 0.00 39 1023.2
20260502112941 -17 0.0 0.0 0.00 0.00 0.00 38 1023.4
20260502112441 -17 0.0 0.0 0.00 0.00 0.00 39 1023.5
20260502111941 -17 0.0 0.0 0.00 0.00 0.00 39 1023.6
20260502111441 -17 0.0 0.0 0.00 0.00 0.00 39 1023.7
20260502110941 -17 0.0 0.0 0.00 0.00 0.00 40 1023.8
20260502110441 -17 0.0 0.0 0.00 0.00 0.00 42 1023.9
20260502105941 -17 0.0 0.0 0.00 0.00 0.00 41 1023.9
20260502105441 -17 0.0 0.0 0.00 0.00 0.00 41 1023.9
20260502104941 -17 0.0 0.0 0.00 0.00 0.00 42 1023.9
20260502104441 -17 0.0 0.0 0.00 0.00 0.00 41 1024.1
20260502103941 -17 0.0 0.0 0.00 0.00 0.00 42 1024.1
20260502103441 -17 0.0 0.0 0.00 0.00 0.00 41 1024.2
20260502102941 -17 0.0 0.0 0.00 0.00 0.00 42 1024.2
20260502102441 -17 0.0 0.0 0.00 0.00 0.00 40 1024.4
20260502101941 -17 0.0 0.0 0.00 0.00 0.00 39 1024.5
20260502101441 -17 0.0 0.0 0.00 0.00 0.00 41 1024.5
20260502100941 -17 0.0 0.0 0.00 0.00 0.00 44 1024.6
20260502100441 -17 0.0 0.0 0.00 0.00 0.00 43 1024.6
20260502091441 -17 0.0 0.0 0.00 0.00 0.00 48 1025.2
20260502090941 -17 0.0 0.0 0.00 0.00 0.00 49 1025.2
20260502090441 -17 0.0 0.0 0.00 0.00 0.00 49 1025.4
20260502071441 -17 0.0 0.0 0.00 0.00 0.00 55 1025.8
20260502070941 -17 0.0 0.0 0.00 0.00 0.00 56 1025.8
20260502070441 -17 0.0 0.0 0.00 0.00 0.00 56 1025.9
20260502065941 -17 0.0 0.0 0.00 0.00 0.00 57 1025.9
20260502065441 -17 0.0 0.0 0.00 0.00 0.00 56 1026.0
20260502064941 -17 0.0 0.0 0.00 0.00 0.00 56 1026.0
20260502064441 -17 0.0 0.0 0.00 0.00 0.00 57 1025.9
20260502063941 -17 0.0 0.0 0.00 0.00 0.00 56 1026.0
20260502063441 -17 0.0 0.0 0.00 0.00 0.00 57 1026.0
20260502062941 -17 0.0 0.0 0.00 0.00 0.00 57 1025.9
20260502062441 -17 0.0 0.0 0.00 0.00 0.00 56 1026.0
20260502061941 -17 0.0 0.0 0.00 0.00 0.00 56 1025.9
20260502061441 -17 0.0 0.0 0.00 0.00 0.00 55 1025.9
20260502060941 -17 0.0 0.0 0.00 0.00 0.00 56 1025.9
20260502060441 -17 0.0 0.0 0.00 0.00 0.00 57 1026.0
20260502055941 -17 0.0 0.0 0.00 0.00 0.00 59 1025.9
20260502055441 -17 0.0 0.0 0.00 0.00 0.00 59 1025.9
20260502054941 -17 0.0 0.0 0.00 0.00 0.00 58 1025.9
20260502054441 -17 0.0 0.0 0.00 0.00 0.00 58 1025.9
20260502053941 -17 0.0 0.0 0.00 0.00 0.00 58 1025.9
20260502053441 -17 0.0 0.0 0.00 0.00 0.00 58 1026.0
20260502052941 -17 0.0 0.0 0.00 0.00 0.00 59 1025.9
20260502052441 -17 0.0 0.0 0.00 0.00 0.00 57 1026.0
20260502051941 -17 0.0 0.0 0.00 0.00 0.00 59 1025.9
20260502051441 -17 0.0 0.0 0.00 0.00 0.00 57 1025.9
20260502050941 -17 0.0 0.0 0.00 0.00 0.00 58 1025.8
20260502050441 -17 0.0 0.0 0.00 0.00 0.00 57 1025.7
20260502045941 -17 0.0 0.0 0.00 0.00 0.00 58 1025.7
20260502045441 -17 0.0 0.0 0.00 0.00 0.00 57 1025.7
20260502044941 -17 0.0 0.0 0.00 0.00 0.00 58 1025.8
20260502044441 -17 0.0 0.0 0.00 0.00 0.00 57 1025.7
20260502043941 -17 0.0 0.0 0.00 0.00 0.00 57 1025.7
20260502043441 -17 0.0 0.0 0.00 0.00 0.00 57 1025.6
20260502042941 -17 0.0 0.0 0.00 0.00 0.00 57 1025.6
20260502042441 -17 0.0 0.0 0.00 0.00 0.00 57 1025.6
20260502041941 -17 0.0 0.0 0.00 0.00 0.00 58 1025.7
20260502041441 -17 0.0 0.0 0.00 0.00 0.00 57 1025.6
20260502040941 -17 0.0 0.0 0.00 0.00 0.00 57 1025.6
20260502040441 -17 0.0 0.0 0.00 0.00 0.00 58 1025.6
20260502035941 -17 0.0 0.0 0.00 0.00 0.00 58 1025.6
20260502035441 -17 0.0 0.0 0.00 0.00 0.00 57 1025.6
20260502034941 -17 0.0 0.0 0.00 0.00 0.00 56 1025.6